KF5JED-13 Weather Reports


time (UTC)temp
F
wind
direction
speed
knots
gust
knots
rain 1hr
in
rain 24hr
in
rain mn
in
humidity
%
barometer
mb
20260906200659 96 193 10.4 14.8 0.00 0.00 0.00 33 1016.8
20260906200155 93 142 7.0 11.3 0.00 0.00 0.00 37 1016.7
20260906195650 92 157 7.8 13.0 0.00 0.00 0.00 38 1017.0
20260906195147 93 155 2.6 9.6 0.00 0.00 0.00 36 1016.8
20260906194643 92 139 7.0 13.0 0.00 0.00 0.00 38 1017.0
20260906194137 91 152 4.3 13.9 0.00 0.00 0.00 39 1017.1
20260906193633 92 159 5.2 12.2 0.00 0.00 0.00 39 1017.1
20260906193128 93 172 8.7 11.3 0.00 0.00 0.00 37 1017.1
20260906192624 94 151 11.3 15.6 0.00 0.00 0.00 36 1017.2
20260906192122 93 149 4.3 11.3 0.00 0.00 0.00 36 1017.2
20260906191618 93 169 5.2 9.6 0.00 0.00 0.00 36 1017.2
20260906191117 93 160 7.0 13.0 0.00 0.00 0.00 36 1017.3
20260906190611 93 149 7.0 13.0 0.00 0.00 0.00 37 1017.5
20260906190106 91 110 6.1 7.8 0.00 0.00 0.00 38 1017.3
20260906185604 93 149 8.7 15.6 0.00 0.00 0.00 38 1017.6
20260906185104 93 156 10.4 12.2 0.00 0.00 0.00 36 1017.8
20260906184559 92 156 13.0 16.5 0.00 0.00 0.00 37 1017.8
20260906184054 94 168 7.8 15.6 0.00 0.00 0.00 36 1018.0
20260906183550 93 162 13.0 13.9 0.00 0.00 0.00 37 1017.7
20260906183046 93 188 11.3 11.3 0.00 0.00 0.00 37 1017.8
20260906182541 91 133 7.0 10.4 0.00 0.00 0.00 38 1017.9
20260906182037 92 154 7.0 12.2 0.00 0.00 0.00 39 1018.4
20260906181532 90 141 5.2 7.8 0.00 0.00 0.00 40 1018.2
20260906181027 90 153 7.8 15.6 0.00 0.00 0.00 40 1018.5
20260906180522 92 148 5.2 11.3 0.00 0.00 0.00 39 1018.4
20260906180021 92 160 9.6 14.8 0.00 0.00 0.00 39 1018.5
20260906175515 92 168 6.1 12.2 0.00 0.00 0.00 39 1018.5
20260906175015 92 163 7.8 13.0 0.00 0.00 0.00 40 1018.5
20260906174508 91 132 7.8 10.4 0.00 0.00 0.00 40 1018.7
20260906174003 91 161 5.2 11.3 0.00 0.00 0.00 40 1018.9
20260906173458 90 109 4.3 13.0 0.00 0.00 0.00 41 1018.7
20260906172957 91 154 8.7 17.4 0.00 0.00 0.00 42 1018.8
20260906172454 92 157 11.3 16.5 0.00 0.00 0.00 40 1018.8
20260906171949 91 148 6.1 9.6 0.00 0.00 0.00 41 1018.7
20260906171443 90 150 8.7 13.9 0.00 0.00 0.00 43 1019.0
20260906170939 90 152 12.2 13.9 0.00 0.00 0.00 43 1019.1
20260906170435 90 155 9.6 13.0 0.00 0.00 0.00 42 1018.9
20260906165932 90 168 7.8 13.0 0.00 0.00 0.00 44 1018.9
20260906165431 90 174 7.0 13.0 0.00 0.00 0.00 44 1019.0
20260906164926 90 160 6.1 11.3 0.00 0.00 0.00 44 1019.0
20260906164424 89 180 11.3 14.8 0.00 0.00 0.00 45 1018.9
20260906163921 89 154 7.8 13.0 0.00 0.00 0.00 45 1019.0
20260906163411 89 137 3.5 16.5 0.00 0.00 0.00 45 1019.0
20260906162909 89 191 9.6 13.0 0.00 0.00 0.00 45 1018.9
20260906162408 89 186 7.8 13.0 0.00 0.00 0.00 47 1019.1
20260906161903 90 200 11.3 12.2 0.00 0.00 0.00 45 1019.0
20260906161402 89 173 7.8 13.9 0.00 0.00 0.00 47 1018.8
20260906160901 87 165 7.0 12.2 0.00 0.00 0.00 51 1019.0
20260906160354 87 196 9.6 10.4 0.00 0.00 0.00 50 1018.8
20260906155853 87 191 7.0 12.2 0.00 0.00 0.00 50 1018.8
20260906155346 86 225 9.6 13.9 0.00 0.00 0.00 52 1018.9
20260906154838 88 171 10.4 13.9 0.00 0.00 0.00 50 1018.8
20260906154332 87 215 11.3 14.8 0.00 0.00 0.00 51 1018.7
20260906153830 87 203 7.8 13.9 0.00 0.00 0.00 51 1018.6
20260906153324 86 175 7.8 13.9 0.00 0.00 0.00 52 1018.7
20260906152820 85 218 5.2 13.9 0.00 0.00 0.00 53 1018.9
20260906152315 85 199 9.6 12.2 0.00 0.00 0.00 54 1018.8
20260906151814 84 209 12.2 13.9 0.00 0.00 0.00 55 1018.6
20260906151310 84 191 7.8 13.9 0.00 0.00 0.00 56 1018.9
20260906150805 85 193 7.8 13.0 0.00 0.00 0.00 55 1018.7
20260906150301 84 172 7.8 12.2 0.00 0.00 0.00 56 1018.6
20260906145800 84 186 10.4 12.2 0.00 0.00 0.00 56 1018.6
20260906145258 83 177 9.6 11.3 0.00 0.00 0.00 57 1018.6
20260906144754 82 200 7.8 12.2 0.00 0.00 0.00 57 1018.7
20260906144248 82 192 9.6 13.0 0.00 0.00 0.00 57 1018.5
20260906143748 81 203 11.3 13.0 0.00 0.00 0.00 58 1018.7
20260906143245 81 215 11.3 11.3 0.00 0.00 0.00 59 1018.8
20260906142744 81 217 11.3 11.3 0.00 0.00 0.00 58 1018.7
20260906142240 81 203 11.3 13.0 0.00 0.00 0.00 58 1018.6
20260906141738 80 203 8.7 10.4 0.00 0.00 0.00 59 1018.4
20260906141234 79 181 9.6 10.4 0.00 0.00 0.00 59 1018.4
20260906140733 79 215 10.4 13.0 0.00 0.00 0.00 60 1018.4
20260906140228 79 189 9.6 11.3 0.00 0.00 0.00 60 1018.2
20260906135724 79 194 7.8 9.6 0.00 0.00 0.00 60 1018.2
20260906135221 78 191 8.7 11.3 0.00 0.00 0.00 60 1018.1
20260906134716 78 189 8.7 11.3 0.00 0.00 0.00 61 1018.2
20260906134211 77 197 7.8 10.4 0.00 0.00 0.00 62 1018.0
20260906133706 77 203 4.3 8.7 0.00 0.00 0.00 62 1018.0
20260906133156 77 179 7.8 10.4 0.00 0.00 0.00 62 1017.7
20260906132651 76 204 5.2 9.6 0.00 0.00 0.00 63 1017.8
20260906132147 76 196 4.3 7.8 0.00 0.00 0.00 63 1017.8
20260906131642 76 192 7.0 7.8 0.00 0.00 0.00 63 1017.8
20260906131137 75 190 7.0 8.7 0.00 0.00 0.00 64 1017.6
20260906130633 75 180 5.2 9.6 0.00 0.00 0.00 64 1017.9
20260906130128 74 197 4.3 7.8 0.00 0.00 0.00 65 1017.5
20260906125625 74 193 7.8 9.6 0.00 0.00 0.00 65 1017.6
20260906125124 74 195 5.2 7.8 0.00 0.00 0.00 66 1017.7
20260906124620 74 187 6.1 7.0 0.00 0.00 0.00 66 1017.8
20260906124115 73 173 4.3 7.0 0.00 0.00 0.00 66 1017.2
20260906123614 73 172 6.1 7.8 0.00 0.00 0.00 66 1017.5
20260906123109 73 167 4.3 7.0 0.00 0.00 0.00 66 1017.5
20260906122609 73 166 5.2 6.1 0.00 0.00 0.00 66 1017.2
20260906122104 74 163 7.0 7.8 0.00 0.00 0.00 65 1017.2
20260906121600 74 167 6.1 7.8 0.00 0.00 0.00 65 1017.2
20260906121057 74 165 4.3 7.8 0.00 0.00 0.00 65 1017.3
20260906120551 74 172 4.3 9.6 0.00 0.00 0.00 65 1017.2
20260906120049 74 173 6.1 8.7 0.00 0.00 0.00 65 1017.3
20260906115548 74 168 4.3 7.0 0.00 0.00 0.00 66 1017.0
20260906115044 74 171 4.3 7.0 0.00 0.00 0.00 66 1017.1
20260906114538 74 180 5.2 7.0 0.00 0.00 0.00 65 1017.0
20260906114034 74 187 6.1 7.8 0.00 0.00 0.00 65 1017.1
20260906113533 74 177 6.1 9.6 0.00 0.00 0.00 65 1017.0
20260906113028 74 175 7.0 7.0 0.00 0.00 0.00 65 1016.7
20260906112523 74 178 7.0 7.8 0.00 0.00 0.00 66 1016.8
20260906112020 74 158 6.1 7.8 0.00 0.00 0.00 66 1016.9
20260906111519 74 165 4.3 8.7 0.00 0.00 0.00 65 1017.0
20260906111014 74 166 4.3 7.0 0.00 0.00 0.00 65 1016.9
20260906110509 73 174 3.5 6.1 0.00 0.00 0.00 65 1016.9
20260906110008 73 168 4.3 4.3 0.00 0.00 0.00 66 1017.0
20260906105504 73 157 3.5 5.2 0.00 0.00 0.00 66 1017.0
20260906104959 74 163 3.5 4.3 0.00 0.00 0.00 65 1017.0
20260906104458 74 158 2.6 3.5 0.00 0.00 0.00 65 1017.0
20260906103957 74 156 3.5 4.3 0.00 0.00 0.00 64 1016.9
20260906103456 74 156 3.5 4.3 0.00 0.00 0.00 65 1017.0
20260906102951 74 163 2.6 5.2 0.00 0.00 0.00 64 1016.9
20260906102450 74 162 5.2 5.2 0.00 0.00 0.00 65 1016.8
20260906101944 74 169 4.3 5.2 0.00 0.00 0.00 65 1016.8
20260906101440 73 162 4.3 5.2 0.00 0.00 0.00 65 1016.8
20260906100935 73 162 3.5 4.3 0.00 0.00 0.00 66 1016.6
20260906100430 73 152 2.6 4.3 0.00 0.00 0.00 67 1016.5
20260906095930 73 165 2.6 4.3 0.00 0.00 0.00 66 1016.6
20260906095426 73 175 2.6 4.3 0.00 0.00 0.00 66 1016.6
20260906094926 73 193 3.5 4.3 0.00 0.00 0.00 67 1016.6
20260906094420 73 154 4.3 5.2 0.00 0.00 0.00 67 1016.6
20260906093916 73 165 5.2 6.1 0.00 0.00 0.00 66 1016.6
20260906093413 73 151 4.3 5.2 0.00 0.00 0.00 66 1016.8
20260906092906 73 167 3.5 5.2 0.00 0.00 0.00 65 1016.6
20260906092401 73 179 3.5 4.3 0.00 0.00 0.00 66 1016.7
20260906091856 73 175 2.6 4.3 0.00 0.00 0.00 65 1016.8
20260906091352 73 171 2.6 2.6 0.00 0.00 0.00 66 1016.7
20260906090848 74 175 1.7 2.6 0.00 0.00 0.00 65 1016.7
20260906090347 74 181 2.6 3.5 0.00 0.00 0.00 63 1016.8
20260906085842 75 164 2.6 4.3 0.00 0.00 0.00 62 1016.6
20260906085341 75 156 4.3 4.3 0.00 0.00 0.00 62 1016.8
20260906084831 75 162 3.5 4.3 0.00 0.00 0.00 61 1016.8
20260906084331 75 154 3.5 5.2 0.00 0.00 0.00 61 1016.8
20260906083825 75 151 3.5 5.2 0.00 0.00 0.00 62 1016.6
20260906083320 75 169 3.5 3.5 0.00 0.00 0.00 63 1016.7
20260906082815 75 173 2.6 4.3 0.00 0.00 0.00 62 1016.9
20260906082310 75 171 3.5 5.2 0.00 0.00 0.00 62 1016.6
20260906081805 75 158 4.3 5.2 0.00 0.00 0.00 62 1016.8
20260906081256 76 157 3.5 5.2 0.00 0.00 0.00 61 1016.9
20260906080752 75 158 4.3 6.1 0.00 0.00 0.00 61 1016.6
20260906080248 75 156 3.5 3.5 0.00 0.00 0.00 63 1016.6
20260906075747 75 151 2.6 3.5 0.00 0.00 0.00 63 1016.8
20260906075242 75 193 1.7 3.5 0.00 0.00 0.00 62 1016.7
20260906074737 75 196 2.6 4.3 0.00 0.00 0.00 62 1016.7
20260906074237 76 154 4.3 6.1 0.00 0.00 0.00 60 1016.8
20260906073736 76 156 4.3 5.2 0.00 0.00 0.00 60 1017.0
20260906073231 76 130 5.2 5.2 0.00 0.00 0.00 60 1017.0
20260906072727 77 141 3.5 5.2 0.00 0.00 0.00 59 1016.9
20260906072223 77 154 2.6 7.0 0.00 0.00 0.00 58 1016.9
20260906071718 77 151 3.5 7.0 0.00 0.00 0.00 58 1016.8
20260906071218 77 156 5.2 7.0 0.00 0.00 0.00 58 1017.0
20260906070715 77 151 6.1 7.8 0.00 0.00 0.00 58 1016.9
20260906070210 77 145 6.1 9.6 0.00 0.00 0.00 57 1016.9
20260906065704 77 154 3.5 8.7 0.00 0.00 0.00 57 1016.8
20260906065200 78 157 6.1 7.8 0.00 0.00 0.00 57 1016.8
20260906064655 78 145 6.1 7.8 0.00 0.00 0.00 56 1016.9
20260906064150 78 148 5.2 8.7 0.00 0.00 0.00 56 1016.8
20260906063645 78 154 5.2 8.7 0.00 0.00 0.00 55 1017.0
20260906063141 79 155 5.2 9.6 0.00 0.00 0.00 55 1017.0
20260906062637 79 140 5.2 9.6 0.00 0.00 0.00 55 1017.0
20260906062135 79 158 6.1 10.4 0.00 0.00 0.00 54 1016.9
20260906061632 80 149 7.0 10.4 0.00 0.00 0.00 54 1017.0
20260906061131 80 157 7.8 10.4 0.00 0.00 0.00 54 1016.9
20260906060627 79 151 7.0 11.3 0.00 0.00 0.00 54 1016.9
20260906060120 79 142 6.1 11.3 0.00 0.00 0.00 54 1017.0
20260906055615 79 154 6.1 10.4 0.00 0.00 0.00 54 1016.9
20260906055109 79 155 7.0 9.6 0.00 0.00 0.00 54 1016.9
20260906054605 79 150 6.1 11.3 0.00 0.00 0.00 54 1017.1
20260906054100 80 153 7.8 10.4 0.00 0.00 0.00 54 1016.9
20260906053556 80 145 5.2 11.3 0.00 0.00 0.00 54 1017.0
20260906053052 80 152 7.8 9.6 0.00 0.00 0.00 54 1017.0
20260906052547 80 160 6.1 11.3 0.00 0.00 0.00 53 1017.0
20260906052044 81 153 7.8 9.6 0.00 0.00 0.00 53 1017.0
20260906051539 81 148 7.0 11.3 0.00 0.00 0.00 52 1017.0
20260906051034 81 155 7.8 9.6 0.00 0.00 0.00 52 1016.8
20260906050530 81 148 6.1 9.6 0.00 0.00 0.00 52 1017.1
20260906050025 81 137 7.8 9.6 0.00 0.00 0.00 51 1017.0
20260906045523 82 141 7.0 9.6 0.00 0.00 0.00 51 1017.1
20260906045019 82 140 5.2 10.4 0.00 0.00 0.00 51 1016.9
20260906044514 82 142 7.0 10.4 0.00 0.00 0.00 51 1016.8
20260906044010 82 154 7.8 11.3 0.00 0.00 0.00 50 1016.8
20260906043505 82 154 7.0 10.4 0.00 0.00 0.00 50 1016.9
20260906043001 82 150 7.8 11.3 0.00 0.00 0.00 50 1016.9
20260906042500 82 155 7.0 10.4 0.00 0.00 0.00 50 1016.6
20260906041959 83 146 6.1 12.2 0.00 0.00 0.00 49 1016.8
20260906041456 83 149 9.6 13.0 0.00 0.00 0.00 49 1017.1
20260906040955 83 151 6.1 11.3 0.00 0.00 0.00 49 1017.1
20260906040450 83 156 7.0 9.6 0.00 0.00 0.00 49 1017.1
20260906035946 83 156 5.2 11.3 0.00 0.00 0.00 49 1017.1
20260906035441 83 159 8.7 10.4 0.00 0.00 0.00 48 1017.2
20260906034937 84 156 7.0 8.7 0.00 0.00 0.00 47 1017.2
20260906034431 84 159 7.8 7.8 0.00 0.00 0.00 47 1017.2
20260906033926 84 151 7.0 9.6 0.00 0.00 0.00 46 1017.1
20260906033421 85 155 5.2 9.6 0.00 0.00 0.00 45 1017.2
20260906032917 85 146 7.8 12.2 0.00 0.00 0.00 45 1017.1
20260906032413 85 146 5.2 9.6 0.00 0.00 0.00 45 1017.2
20260906031907 85 159 6.1 7.8 0.00 0.00 0.00 45 1016.8
20260906031402 86 154 6.1 11.3 0.00 0.00 0.00 44 1016.7
20260906030852 86 149 7.8 12.2 0.00 0.00 0.00 44 1016.6
20260906030346 85 154 7.8 10.4 0.00 0.00 0.00 46 1016.6
20260906025841 85 183 7.0 10.4 0.00 0.00 0.00 46 1016.5
20260906025335 85 175 5.2 9.6 0.00 0.00 0.00 46 1016.2
20260906024833 86 155 11.3 12.2 0.00 0.00 0.00 44 1016.6
20260906024328 87 173 7.8 15.6 0.00 0.00 0.00 42 1016.3
20260906023823 85 151 7.0 9.6 0.00 0.00 0.00 45 1016.5
20260906023319 84 219 7.8 9.6 0.00 0.00 0.00 47 1016.6
20260906022814 84 184 3.5 8.7 0.00 0.00 0.00 48 1016.5
20260906022309 85 213 6.1 9.6 0.00 0.00 0.00 45 1016.5
20260906021804 86 138 5.2 7.0 0.00 0.00 0.00 44 1016.2
20260906021258 86 161 4.3 7.0 0.00 0.00 0.00 44 1016.2
20260906020752 87 147 6.1 7.8 0.00 0.00 0.00 43 1016.2
20260906020247 87 151 3.5 6.1 0.00 0.00 0.00 43 1016.1
20260906015747 87 141 5.2 7.8 0.00 0.00 0.00 43 1016.0
20260906015245 87 140 6.1 8.7 0.00 0.00 0.00 44 1015.7
20260906014740 87 148 3.5 8.7 0.00 0.00 0.00 43 1015.6
20260906014236 87 144 3.5 9.6 0.00 0.00 0.00 43 1015.5
20260906013732 87 128 6.1 7.8 0.00 0.00 0.00 43 1015.5
20260906013231 88 140 7.0 9.6 0.00 0.00 0.00 43 1015.1
20260906012727 88 131 5.2 7.0 0.00 0.00 0.00 43 1015.2
20260906012222 88 114 3.5 10.4 0.00 0.00 0.00 43 1015.2
20260906011717 88 161 6.1 8.7 0.00 0.00 0.00 43 1015.0
20260906011212 89 114 7.0 9.6 0.00 0.00 0.00 42 1015.0
20260906010707 89 132 6.1 10.4 0.00 0.00 0.00 42 1015.0
20260906010203 89 140 3.5 6.1 0.00 0.00 0.00 42 1015.0
20260906005702 89 106 3.5 8.7 0.00 0.00 0.00 42 1015.1
20260906005157 89 134 5.2 8.7 0.00 0.00 0.00 42 1015.1
20260906004656 90 153 5.2 8.7 0.00 0.00 0.00 41 1014.9
20260906004151 90 146 5.2 8.7 0.00 0.00 0.00 41 1015.0
20260906003646 91 148 7.0 7.8 0.00 0.00 0.00 41 1015.0
20260906003142 91 138 7.0 9.6 0.00 0.00 0.00 40 1015.1
20260906002637 91 142 4.3 9.6 0.00 0.00 0.00 40 1014.8
20260906002131 91 146 3.5 10.4 0.00 0.00 0.00 39 1014.7
20260906001627 91 147 4.3 11.3 0.00 0.00 0.00 39 1014.9
20260906001126 92 139 6.1 11.3 0.00 0.00 0.00 38 1014.7
20260906000622 92 129 6.1 11.3 0.00 0.00 0.00 38 1014.9
20260906000118 92 153 7.8 14.8 0.00 0.00 0.00 38 1014.6
20260905235616 93 152 7.0 14.8 0.00 0.00 0.00 38 1014.3
20260905235111 93 142 7.0 13.9 0.00 0.00 0.00 37 1014.5
20260905234607 93 146 9.6 14.8 0.00 0.00 0.00 37 1014.3
20260905234101 93 147 9.6 13.9 0.00 0.00 0.00 37 1014.3
20260905233556 94 138 12.2 18.2 0.00 0.00 0.00 37 1014.1
20260905233051 95 145 9.6 13.9 0.00 0.00 0.00 36 1014.1
20260905232546 96 138 5.2 9.6 0.00 0.00 0.00 35 1014.1
20260905232042 96 143 7.0 13.0 0.00 0.00 0.00 33 1014.1
20260905231537 96 134 8.7 12.2 0.00 0.00 0.00 34 1013.9
20260905231033 97 154 8.7 9.6 0.00 0.00 0.00 32 1014.0
20260905230532 97 155 5.2 9.6 0.00 0.00 0.00 33 1013.9
20260905230030 98 168 7.0 9.6 0.00 0.00 0.00 32 1014.1
20260905225525 98 165 9.6 12.2 0.00 0.00 0.00 31 1013.9
20260905225020 97 168 6.1 10.4 0.00 0.00 0.00 33 1014.0
20260905224515 97 169 10.4 12.2 0.00 0.00 0.00 32 1014.0
20260905224015 96 153 4.3 9.6 0.00 0.00 0.00 34 1014.1
20260905223512 96 163 5.2 11.3 0.00 0.00 0.00 34 1014.0
20260905223007 97 138 6.1 8.7 0.00 0.00 0.00 34 1014.2
20260905222502 96 206 7.8 10.4 0.00 0.00 0.00 34 1014.2
20260905221957 96 161 7.8 11.3 0.00 0.00 0.00 33 1013.9
20260905221454 97 139 8.7 13.9 0.00 0.00 0.00 32 1014.1
20260905220950 96 162 7.8 12.2 0.00 0.00 0.00 33 1014.1
20260905220446 97 161 10.4 13.9 0.00 0.00 0.00 33 1014.1
20260905215944 97 166 8.7 13.0 0.00 0.00 0.00 33 1014.2
20260905215440 98 171 5.2 11.3 0.00 0.00 0.00 33 1014.5
20260905214937 98 156 8.7 14.8 0.00 0.00 0.00 33 1014.3
20260905214432 98 161 7.8 15.6 0.00 0.00 0.00 33 1014.3
20260905213931 96 161 6.1 12.2 0.00 0.00 0.00 34 1014.3
20260905213428 97 154 6.1 12.2 0.00 0.00 0.00 33 1014.5
20260905212923 100 182 7.0 15.6 0.00 0.00 0.00 32 1014.5
20260905212418 97 159 4.3 6.1 0.00 0.00 0.00 35 1014.7
20260905211917 97 143 5.2 8.7 0.00 0.00 0.00 36 1014.7
20260905211413 97 147 8.7 11.3 0.00 0.00 0.00 35 1014.8
20260905210909 95 169 5.2 7.8 0.00 0.00 0.00 36 1015.1
20260905210403 96 142 8.7 12.2 0.00 0.00 0.00 35 1014.9
20260905205903 97 164 7.8 11.3 0.00 0.00 0.00 35 1015.0
20260905205357 96 192 5.2 7.8 0.00 0.00 0.00 33 1015.1
20260905204856 97 149 7.0 12.2 0.00 0.00 0.00 34 1015.2
20260905204352 97 180 3.5 11.3 0.00 0.00 0.00 33 1015.5
20260905203845 97 136 5.2 10.4 0.00 0.00 0.00 34 1015.5
20260905203341 97 137 3.5 5.2 0.00 0.00 0.00 36 1015.2
20260905202837 97 164 10.4 14.8 0.00 0.00 0.00 34 1015.7
20260905202331 97 172 1.7 8.7 0.00 0.00 0.00 36 1015.5
20260905201827 96 158 9.6 13.0 0.00 0.00 0.00 35 1015.7
20260905201322 97 187 9.6 13.9 0.00 0.00 0.00 33 1015.7